Вернуться в каталог

STARLINK-35757

АктивенСвязьVLEO
NORAD 66270·PAYLOAD·🇺🇸 United States

Запущен Oct 31, 2025 с Vandenberg Space Force Base

Loading…

Ближайшие Пролёты (ближайшие 24 часа)

TLE

СвежийSource: CelesTrak SupGP

Эпоха: Sep 14, 2026, 14:22 UTC

1 66270C 25247F   26257.59909722 -.00084244  00000+0 -24893-2 0  2574
2 66270  53.1606  29.5736 0001198  85.3751  96.5656 15.34428932    13

Отслеживайте STARLINK-35757 в реальном времени с AllMySat

Download on the App Store